This is the latest recevied weather packets stored in our database for station/object WA4TPR. If no packets are shown the sender has not sent any weather packets the latest 10 day(s).
| Time | Temp. | Humidity | Pressure | Rain* | Wind** | Luminosity | Snow |
|---|---|---|---|---|---|---|---|
| 1777986450 | 23.89° C | 83% | 1019.8 hPa | 0 mm | - | 291 W/m² | - |
| 1777986149 | 23.33° C | 85% | 1019.6 hPa | 0 mm | - | 301 W/m² | - |
| 1777985845 | 23.33° C | 86% | 1019.5 hPa | 0 mm | - | 132 W/m² | - |
| 1777985542 | 23.33° C | 85% | 1019.7 hPa | 0 mm | - | 166 W/m² | - |
| 1777985239 | 22.78° C | 86% | 1019.9 hPa | 0 mm | - | 183 W/m² | - |
| 1777984936 | 22.78° C | 86% | 1019.8 hPa | 0 mm | - | 128 W/m² | - |
| 1777984631 | 22.78° C | 86% | 1019.9 hPa | 0 mm | - | 128 W/m² | - |
| 1777984329 | 22.78° C | 87% | 1019.6 hPa | 0 mm | - | 132 W/m² | - |
| 1777984025 | 22.78° C | 87% | 1019.7 hPa | 0 mm | - | 161 W/m² | - |
| 1777983722 | 22.22° C | 88% | 1019.5 hPa | 0 mm | - | 181 W/m² | - |
| 1777983419 | 21.67° C | 90% | 1019.4 hPa | 0 mm | - | 164 W/m² | - |
| 1777983115 | 21.67° C | 90% | 1019.6 hPa | 0 mm | - | 93 W/m² | - |
| 1777982812 | 21.67° C | 91% | 1019.4 hPa | 0 mm | - | 89 W/m² | - |
| 1777982508 | 21.11° C | 91% | 1019.3 hPa | 0 mm | - | 77 W/m² | - |
| 1777982201 | 21.11° C | 92% | 1019.3 hPa | 0 mm | - | 72 W/m² | - |
| 1777981899 | 20.56° C | 93% | 1019.2 hPa | 0 mm | - | 65 W/m² | - |
| 1777981596 | 20.56° C | 94% | 1019.2 hPa | 0 mm | - | 66 W/m² | - |
| 1777981293 | 20.56° C | 94% | 1019.1 hPa | 0 mm | - | 59 W/m² | - |
| 1777980989 | 20.56° C | 94% | 1019.1 hPa | 0 mm | - | 44 W/m² | - |
| 1777980686 | 20.56° C | 95% | 1019 hPa | 0 mm | - | 36 W/m² | - |
| 1777980382 | 20° C | 95% | 1019 hPa | 0 mm | - | 31 W/m² | - |
| 1777980080 | 20.56° C | 95% | 1019 hPa | 0 mm | - | 27 W/m² | - |
| 1777979774 | 20° C | 94% | 1019.1 hPa | 0 mm | - | 21 W/m² | - |
| 1777979470 | 20° C | 95% | 1018.8 hPa | 0 mm | - | 19 W/m² | - |
| 1777979167 | 20° C | 95% | 1018.8 hPa | 0 mm | - | 16 W/m² | - |
* Rain latest hour (hover to see other rain measurements)
** Current wind speed in m/s (hover to see current wind gust speed)